Wind_Speed
36 36 36 36 35 35 36 35 35 33 33 31 33 34 35 36 36 36 36 37 38 39 39 40 41 41 42 42 43 44 44 45 45 46 46 46 47 49 50 51 51 52 52 51
37 37 38 38 38 37 37 37 38 37 36 35 36 37 37 38 38 39 39 40 41 41 42 43 43 44 44 44 45 46 46 46 47 47 47 48 48 49 50 51 52 52 52 52
39 39 40 41 39 38 39 39 39 39 37 38 39 39 39 40 40 40 41 42 43 43 44 45 46 46 46 46 47 47 48 48 48 49 49 50 50 50 51 51 51 51 51 51
41 41 42 40 39 39 40 39 40 41 40 41 41 41 41 42 43 43 43 43 44 45 45 46 47 47 48 48 49 49 49 49 50 50 51 51 51 51 51 51 51 51 51 51
40 42 42 40 40 39 40 40 40 41 41 42 42 43 42 43 43 44 44 44 44 45 46 46 47 47 48 49 49 49 49 50 50 51 51 51 51 51 51 52 51 51 51 52
40 41 41 40 40 40 41 41 40 41 41 42 42 43 42 43 44 44 44 44 44 45 45 46 47 47 48 48 49 49 49 49 50 50 51 51 51 51 51 51 51 51 51 51
40 41 41 40 40 40 41 40 40 41 41 42 42 43 43 43 43 44 44 45 45 46 46 47 47 48 48 48 48 48 48 48 49 50 50 50 50 50 50 50 50 50 50 49
39 40 40 40 40 40 40 40 40 40 41 41 42 42 43 43 43 44 45 46 46 46 47 47 47 48 47 47 47 47 47 47 47 48 48 48 49 48 49 48 48 48 48 48
39 39 39 39 40 41 41 41 40 41 41 42 42 43 43 43 44 45 45 46 46 46 46 46 47 47 47 47 47 46 46 45 45 46 46 46 46 46 46 46 46 46 46 46
39 38 39 39 40 41 41 41 41 41 42 42 42 42 43 43 43 44 44 45 46 46 46 46 46 46 46 46 46 46 45 45 44 44 44 44 44 44 44 44 45 45 45 45
40 39 39 39 39 39 40 40 41 41 41 41 42 42 42 42 43 44 45 45 46 46 46 46 46 45 45 45 45 44 44 43 43 43 43 43 43 43 44 44 44 44 44 44
39 39 39 39 39 39 39 40 40 40 41 41 41 42 42 43 44 45 45 45 45 45 45 45 45 44 44 44 44 43 42 41 41 42 42 42 42 42 42 43 43 43 43 43
40 39 39 38 38 38 39 39 39 39 39 40 40 41 42 44 45 45 44 44 43 43 43 43 43 42 42 43 43 42 41 41 41 41 41 41 41 41 40 41 41 41 42 42
38 38 38 38 38 37 37 38 38 39 39 40 41 42 42 43 43 43 43 43 42 42 41 41 41 41 41 41 41 40 40 40 40 40 39 39 39 40 40 40 40 39 39 40
36 37 37 37 37 37 37 38 38 39 39 40 40 40 41 41 41 40 40 41 41 41 41 41 41 40 40 40 39 39 39 39 39 39 39 39 39 39 39 39 38 38 37 37
34 35 36 37 37 37 37 38 38 39 39 39 39 39 39 39 39 39 39 40 40 40 40 40 40 39 39 39 38 38 38 38 38 38 38 38 38 38 37 37 36 35 35 35
33 34 35 36 37 37 38 38 39 39 38 38 38 38 38 38 38 38 39 39 39 39 39 39 38 38 38 38 38 37 37 37 36 36 36 36 36 36 36 36 35 34 34 34
30 31 32 33 34 34 35 35 36 36 36 36 36 37 37 38 38 37 37 38 38 38 38 37 37 37 36 36 37 36 36 36 36 36 36 36 36 35 35 35 34 34 33 33
28 28 29 30 31 32 33 33 33 33 34 34 35 35 35 35 35 35 36 36 36 36 36 35 35 34 34 34 35 35 35 36 36 35 35 35 34 34 33 33 32 32 32 32
26 27 28 28 30 31 32 32 32 32 33 33 33 33 33 33 34 35 35 34 34 34 33 33 33 32 32 32 33 33 33 34 34 33 33 33 32 31 31 30 30 30 30 30
26 27 27 28 29 30 31 31 31 31 31 31 31 31 31 32 32 32 32 31 31 32 31 31 31 31 31 31 31 31 31 31 31 30 30 30 30 29 29 29 29 29 28 28
26 26 27 28 29 28 29 29 29 29 30 30 31 31 30 30 31 31 30 30 30 29 30 30 30 30 29 29 29 29 29 29 28 28 28 27 27 27 27 27 27 26 26 26
27 27 28 28 28 27 27 27 28 28 29 29 29 29 29 29 30 29 28 28 28 28 28 27 27 27 27 27 27 27 27 27 27 26 26 26 25 25 25 25 25 24 24 24
26 27 27 27 27 27 27 27 27 27 27 27 28 28 28 27 27 27 26 25 25 25 25 25 24 25 25 25 26 26 25 25 25 25 25 24 24 23 23 23 23 23 22 21
25 25 26 26 26 26 26 26 26 26 27 27 27 27 26 25 25 24 24 23 23 23 22 23 23 23 24 24 24 24 23 23 23 23 22 22 22 21 21 21 21 21 20 20
27 26 26 26 26 25 25 25 25 25 26 25 25 24 24 24 24 23 23 22 22 21 21 21 21 22 22 23 23 23 22 22 21 21 20 20 20 20 20 20 20 20 20 20
26 26 26 26 26 25 25 25 24 24 23 23 22 22 23 23 22 22 22 21 21 21 20 20 20 20 20 20 20 19 19 18 18 18 18 18 18 18 18 19 19 19 19 19
Wind_Direction
256 256 257 258 258 260 262 264 266 267 267 268 269 269 270 270 269 268 266 266 267 267 267 267 268 269 269 269 269 269 270 270 270 271 271 271 272 272 271 272 272 273 273 274
256 257 257 258 259 260 262 264 266 266 267 268 269 269 269 269 269 268 267 267 267 268 267 268 268 269 269 269 269 269 270 270 271 271 271 272 273 273 273 273 273 273 273 273
256 256 257 257 260 262 263 264 265 266 267 267 268 269 269 269 269 268 268 268 268 268 268 268 268 269 269 269 269 269 270 270 271 271 272 272 273 274 274 274 274 274 273 274
256 256 256 260 260 261 262 264 265 266 266 267 268 269 269 269 269 269 269 269 268 268 269 269 270 270 270 269 269 269 270 270 271 271 271 272 273 274 274 274 274 274 273 273
257 258 260 260 262 263 264 264 265 266 267 268 268 269 269 269 268 268 269 269 270 270 270 270 271 271 271 271 270 270 270 271 271 272 272 272 272 273 273 273 273 273 273 273
258 260 262 263 263 264 265 265 266 267 267 268 269 270 270 269 269 270 270 270 271 271 272 272 272 272 272 272 271 270 270 271 272 272 272 272 273 273 273 273 273 273 273 273
259 262 264 264 265 266 267 268 268 268 269 269 270 271 271 270 270 271 271 272 272 273 273 273 273 273 274 273 272 271 270 271 271 272 272 273 272 272 272 273 273 273 273 273
260 261 263 264 266 267 269 269 269 269 269 270 271 271 272 272 272 272 273 274 274 274 275 274 274 274 274 274 273 271 271 271 272 273 273 274 273 273 273 273 273 273 273 274
259 261 263 263 265 267 267 268 268 268 269 270 270 271 271 272 272 273 274 275 275 275 275 274 274 274 274 273 272 270 270 271 272 273 274 274 273 272 272 272 273 273 274 274
258 260 261 263 265 266 267 267 267 268 269 269 270 271 271 273 273 274 275 275 275 275 275 275 275 274 274 273 271 270 270 271 272 273 273 273 273 272 271 272 273 273 274 274
259 260 261 262 264 265 266 267 267 268 269 270 271 272 273 274 275 276 277 277 276 276 276 276 275 275 274 274 272 271 270 271 272 273 273 273 273 272 272 273 273 273 273 274
259 260 262 263 264 265 266 267 268 270 271 272 273 273 273 274 275 276 278 278 277 276 276 277 276 275 274 273 272 271 271 272 273 274 275 274 273 272 273 273 273 274 274 274
260 261 262 263 265 266 266 268 270 271 272 273 274 275 275 275 277 277 278 278 277 277 277 277 276 275 273 272 271 271 271 272 274 275 276 275 274 274 273 274 274 274 274 274
260 261 262 263 264 266 267 269 271 273 273 274 275 276 277 277 278 278 278 278 278 278 278 277 276 275 273 272 271 271 272 273 275 276 276 275 275 275 275 274 274 273 273 273
261 262 263 264 266 267 269 270 272 273 275 276 277 277 278 278 278 278 278 277 277 278 278 277 276 274 272 271 271 272 272 273 274 275 275 275 275 276 275 275 274 272 271 272
263 264 265 266 267 268 269 270 272 274 276 277 277 278 278 279 279 278 278 278 278 278 278 277 275 273 271 271 272 273 274 274 274 274 274 275 275 275 274 274 273 271 270 271
266 266 266 267 267 269 270 272 273 275 275 276 276 277 278 279 279 279 280 280 280 280 279 277 274 272 272 272 272 273 274 274 274 273 274 274 275 274 273 273 271 269 269 270
268 269 269 269 269 270 271 273 274 274 274 275 277 278 279 279 280 280 281 280 280 280 279 277 274 273 272 271 271 272 273 273 273 272 272 273 274 274 273 271 269 269 269 270
272 271 271 270 270 271 272 274 274 275 275 276 278 279 280 280 280 281 281 282 281 280 277 274 273 273 272 271 271 272 272 272 272 271 271 271 272 272 272 270 269 268 268 269
273 273 273 273 273 274 275 275 275 276 277 278 279 280 280 281 282 282 282 282 281 280 277 273 273 272 272 272 272 273 273 273 272 271 271 271 271 270 270 269 269 268 268 268
275 276 277 278 278 278 278 277 277 278 278 279 280 281 282 283 283 283 283 283 281 279 276 274 273 272 271 272 272 273 274 274 272 270 270 270 269 269 269 268 268 267 267 268
278 279 280 282 282 282 281 279 279 279 279 280 281 282 282 283 284 284 284 283 281 279 277 275 273 271 271 271 272 273 274 273 271 269 268 268 269 269 268 267 266 267 267 268
279 280 281 282 283 283 282 281 280 279 279 280 281 282 283 283 284 284 283 282 282 281 279 276 273 271 271 272 273 274 274 272 270 268 268 269 270 270 268 267 267 267 267 268
279 280 282 282 282 283 282 281 280 279 280 281 283 284 285 284 284 284 285 284 283 281 279 276 274 273 273 273 274 274 273 272 270 268 268 268 268 268 267 265 265 265 266 266
280 281 282 283 284 284 283 281 279 280 280 281 282 284 285 285 284 284 284 284 284 284 281 278 276 275 275 274 273 273 273 271 269 267 265 266 267 266 264 263 263 263 263 264
281 282 283 284 283 283 282 281 280 280 281 281 282 282 283 283 284 284 283 283 284 284 282 281 279 277 276 275 274 273 271 270 268 266 265 266 264 264 264 263 262 261 261 261
281 283 283 283 282 282 282 282 281 281 281 281 281 281 282 283 283 283 283 283 283 284 283 282 281 280 278 278 274 271 268 267 266 264 263 263 264 265 264 263 261 260 259 258
Height
5634 5636 5637 5638 5640 5641 5641 5642 5643 5645 5645 5646 5644 5644 5644 5644 5643 5643 5643 5643 5643 5643 5643 5643 5643 5643 5643 5642 5642 5642 5641 5641 5640 5639 5638 5637 5636 5636 5635 5634 5633 5632 5632 5631
5623 5625 5625 5626 5628 5630 5631 5632 5632 5633 5635 5635 5633 5633 5633 5633 5632 5632 5632 5632 5632 5631 5631 5631 5631 5631 5630 5630 5629 5628 5628 5627 5626 5625 5625 5624 5623 5622 5621 5620 5619 5618 5617 5616
5612 5614 5613 5615 5620 5620 5620 5621 5621 5622 5625 5623 5622 5622 5622 5621 5621 5621 5620 5620 5620 5619 5619 5618 5618 5617 5617 5616 5615 5615 5614 5613 5612 5611 5610 5609 5608 5607 5606 5605 5604 5603 5602 5601
5599 5601 5601 5609 5608 5608 5608 5609 5609 5610 5611 5610 5610 5609 5609 5609 5609 5608 5608 5607 5607 5606 5606 5605 5604 5603 5603 5602 5601 5600 5599 5598 5597 5596 5595 5594 5593 5592 5591 5590 5589 5588 5587 5586
5587 5588 5590 5595 5596 5596 5596 5597 5597 5598 5598 5598 5597 5597 5598 5597 5596 5595 5595 5594 5593 5593 5592 5591 5590 5589 5588 5587 5586 5585 5584 5584 5583 5581 5580 5579 5578 5577 5576 5574 5574 5572 5571 5570
5575 5576 5579 5585 5584 5583 5583 5584 5586 5585 5585 5585 5584 5584 5585 5584 5583 5582 5582 5581 5580 5579 5578 5577 5576 5575 5574 5572 5571 5571 5570 5569 5568 5566 5565 5564 5563 5562 5560 5559 5558 5557 5557 5555
5564 5564 5566 5570 5570 5570 5572 5574 5573 5572 5572 5572 5571 5571 5571 5570 5569 5569 5568 5567 5566 5565 5564 5563 5562 5560 5559 5558 5556 5555 5554 5553 5553 5551 5550 5549 5547 5546 5545 5544 5543 5543 5542 5541
5552 5553 5557 5558 5558 5559 5559 5559 5559 5559 5559 5559 5558 5558 5557 5557 5556 5555 5554 5554 5552 5551 5550 5549 5547 5546 5545 5543 5542 5540 5540 5539 5538 5537 5535 5534 5532 5531 5530 5529 5528 5528 5527 5526
5541 5544 5544 5544 5545 5545 5545 5546 5546 5546 5546 5546 5545 5545 5544 5544 5543 5542 5541 5539 5538 5537 5536 5534 5533 5531 5530 5529 5527 5526 5525 5524 5523 5522 5521 5519 5518 5517 5516 5515 5514 5513 5512 5512
5529 5531 5532 5532 5532 5533 5533 5533 5533 5533 5533 5532 5532 5532 5531 5530 5529 5528 5527 5526 5524 5523 5521 5520 5518 5516 5515 5514 5513 5512 5511 5511 5509 5508 5507 5505 5504 5503 5502 5501 5500 5499 5498 5498
5517 5519 5519 5521 5521 5521 5520 5520 5520 5520 5520 5520 5519 5518 5518 5517 5515 5514 5513 5511 5510 5508 5507 5506 5504 5502 5501 5499 5498 5498 5498 5497 5496 5495 5493 5492 5490 5489 5488 5488 5486 5486 5485 5484
5506 5507 5507 5508 5508 5508 5508 5508 5508 5508 5507 5507 5506 5505 5504 5503 5502 5501 5499 5497 5496 5494 5493 5491 5490 5488 5487 5485 5484 5484 5484 5484 5482 5481 5480 5478 5477 5477 5475 5474 5474 5472 5471 5471
5493 5494 5494 5495 5495 5495 5495 5495 5495 5495 5495 5494 5493 5492 5491 5490 5488 5487 5485 5483 5482 5480 5479 5477 5476 5475 5473 5471 5471 5471 5471 5470 5469 5468 5467 5465 5464 5463 5463 5462 5461 5460 5458 5457
5481 5481 5483 5483 5484 5484 5484 5483 5483 5483 5482 5481 5480 5479 5478 5476 5475 5473 5472 5470 5468 5467 5466 5464 5463 5462 5460 5459 5458 5458 5457 5457 5456 5455 5454 5452 5451 5450 5450 5449 5449 5448 5447 5445
5469 5470 5471 5471 5472 5472 5472 5471 5471 5470 5470 5469 5467 5466 5464 5463 5462 5461 5459 5457 5455 5454 5452 5451 5450 5448 5447 5446 5446 5445 5445 5444 5443 5442 5441 5440 5439 5438 5437 5436 5436 5435 5435 5434
5459 5459 5459 5460 5460 5460 5460 5460 5459 5458 5457 5456 5455 5454 5452 5450 5449 5448 5446 5444 5443 5441 5440 5438 5436 5435 5434 5434 5433 5433 5432 5432 5430 5430 5429 5428 5427 5426 5425 5424 5423 5423 5423 5422
5448 5448 5448 5449 5449 5448 5448 5447 5447 5446 5445 5444 5443 5441 5440 5438 5437 5435 5434 5432 5430 5428 5426 5425 5423 5422 5422 5421 5421 5421 5420 5419 5418 5417 5417 5416 5415 5414 5413 5412 5412 5412 5412 5411
5438 5438 5437 5437 5437 5437 5437 5436 5435 5434 5433 5432 5431 5429 5428 5426 5425 5423 5421 5420 5418 5416 5414 5412 5411 5411 5410 5410 5409 5409 5408 5408 5407 5406 5406 5405 5404 5403 5402 5401 5401 5401 5401 5401
5428 5428 5427 5427 5426 5426 5425 5425 5424 5423 5421 5420 5419 5418 5416 5415 5413 5411 5409 5408 5406 5404 5403 5401 5400 5399 5399 5398 5398 5397 5397 5396 5396 5395 5394 5393 5393 5392 5391 5391 5390 5390 5390 5390
5419 5418 5418 5417 5416 5416 5415 5414 5413 5412 5410 5409 5408 5407 5405 5404 5402 5400 5398 5397 5395 5393 5392 5391 5390 5389 5388 5388 5387 5386 5386 5385 5384 5384 5383 5383 5382 5381 5381 5381 5380 5380 5380 5380
5410 5409 5409 5408 5407 5406 5404 5403 5402 5401 5400 5399 5398 5396 5395 5393 5391 5390 5388 5387 5385 5382 5381 5380 5379 5379 5378 5377 5377 5376 5375 5374 5374 5373 5373 5372 5372 5372 5371 5371 5371 5371 5371 5371
5401 5400 5399 5399 5397 5396 5395 5393 5392 5391 5390 5389 5388 5386 5385 5384 5382 5380 5378 5376 5375 5373 5372 5370 5369 5369 5368 5367 5367 5366 5365 5364 5364 5363 5363 5363 5362 5362 5362 5362 5362 5362 5362 5362
5392 5391 5390 5389 5388 5387 5386 5384 5383 5382 5381 5380 5378 5377 5375 5374 5372 5370 5369 5367 5365 5364 5362 5361 5360 5359 5359 5358 5358 5357 5356 5355 5355 5354 5354 5354 5354 5353 5353 5353 5353 5354 5354 5354
5383 5382 5381 5380 5379 5378 5377 5376 5374 5373 5372 5370 5369 5367 5366 5364 5363 5361 5360 5358 5357 5355 5354 5352 5351 5351 5350 5350 5349 5348 5347 5346 5346 5346 5345 5345 5345 5345 5345 5345 5345 5346 5346 5346
5374 5373 5372 5371 5370 5369 5368 5366 5365 5364 5363 5362 5360 5358 5357 5356 5354 5353 5351 5350 5348 5347 5346 5345 5344 5343 5342 5341 5341 5340 5339 5338 5338 5337 5337 5337 5337 5337 5337 5338 5338 5339 5339 5339
5365 5364 5363 5362 5361 5360 5359 5358 5356 5355 5354 5353 5352 5350 5349 5347 5346 5345 5344 5342 5341 5339 5338 5337 5336 5335 5334 5333 5333 5332 5331 5331 5330 5330 5330 5330 5330 5330 5331 5331 5331 5332 5332 5333
5356 5355 5354 5353 5352 5351 5350 5349 5348 5347 5346 5345 5344 5343 5341 5340 5338 5337 5336 5335 5334 5332 5331 5330 5329 5328 5327 5326 5325 5324 5324 5324 5324 5324 5324 5324 5324 5324 5324 5324 5325 5325 5325 5326